WXM80 ListenWXM80 Stop

You find our weather info also at:

UK Metoffice

WeatherCloud

Weather Underground

Northeastern Weather Network

AWEKAS

Citizen Weather Observer Program (CWOP)

HAMweather, WeatherForYou, PWS Weather


Weather Underground History page Text

Daily Summary for December 13, 2017 Units:  English    Metric   Both
« Previous Day
Next Day »
Daily Weekly Monthly Yearly Custom
  High: Low: Average:
Temperature: 32.8 °F 22.3 °F 26.9 °F
Dew Point: 22.6 °F 10.1 °F 13.1 °F
Humidity: 66 % 44 % 56 %
Wind Speed: 16.3 mph 1.0 mph 8.6 mph
Wind Gust: 29.9 mph - -
Wind:- - West
Pressure: 29.67 in 29.43 in -
Precipitation: 0.00 in    
Historical Graphs
 
 
Tabular Data for December 13, 2017
Time Temperature Dew Point Pressure Wind Wind Speed Wind Gust Humidity Rainfall Rate (Hourly)
00:01 32.8 °F 22.3 °F 29.44 in WNW 8.4 mph 18.4 mph 65 % 0.00 in
00:06 32.7 °F 22.6 °F 29.44 in WNW 3.8 mph 12.7 mph 66 % 0.00 in
00:11 32.5 °F 21.3 °F 29.44 in WNW 5.8 mph 12.7 mph 63 % 0.00 in
00:16 32.2 °F 20.2 °F 29.44 in WNW 5.4 mph 13.0 mph 61 % 0.00 in
00:21 32.0 °F 20.4 °F 29.43 in NW 7.4 mph 13.8 mph 62 % 0.00 in
00:27 31.7 °F 20.5 °F 29.44 in WNW 4.7 mph 16.1 mph 63 % 0.00 in
00:32 31.5 °F 19.6 °F 29.44 in NW 8.6 mph 15.0 mph 61 % 0.00 in
00:37 31.3 °F 19.4 °F 29.45 in NW 7.9 mph 15.0 mph 61 % 0.00 in
00:42 31.2 °F 20.1 °F 29.45 in WNW 9.5 mph 12.7 mph 63 % 0.00 in
00:47 31.0 °F 19.5 °F 29.46 in NNW 6.6 mph 10.4 mph 62 % 0.00 in
00:52 30.7 °F 18.1 °F 29.46 in NNW 10.3 mph 19.6 mph 59 % 0.00 in
00:57 30.4 °F 18.2 °F 29.47 in NW 5.3 mph 12.7 mph 60 % 0.00 in
01:02 30.1 °F 17.9 °F 29.46 in WNW 6.6 mph 17.3 mph 60 % 0.00 in
01:07 29.9 °F 18.1 °F 29.46 in WSW 5.9 mph 12.7 mph 61 % 0.00 in
01:12 29.7 °F 17.9 °F 29.46 in West 9.8 mph 17.3 mph 61 % 0.00 in
01:17 29.5 °F 16.9 °F 29.47 in NW 11.3 mph 18.0 mph 59 % 0.00 in
01:22 29.3 °F 16.3 °F 29.46 in WNW 8.8 mph 24.2 mph 58 % 0.00 in
01:32 29.0 °F 16.4 °F 29.47 in NW 8.3 mph 18.4 mph 59 % 0.00 in
01:42 28.7 °F 16.2 °F 29.47 in NW 9.1 mph 13.0 mph 59 % 0.00 in
01:47 28.6 °F 16.5 °F 29.47 in WSW 8.5 mph 15.0 mph 60 % 0.00 in
01:53 28.5 °F 17.1 °F 29.47 in WNW 9.6 mph 17.3 mph 62 % 0.00 in
01:58 28.3 °F 17.3 °F 29.47 in West 9.8 mph 17.3 mph 63 % 0.00 in
02:03 28.2 °F 16.5 °F 29.47 in West 9.6 mph 15.0 mph 61 % 0.00 in
02:08 28.0 °F 16.3 °F 29.48 in West 9.5 mph 16.1 mph 61 % 0.00 in
02:13 27.8 °F 15.3 °F 29.48 in WNW 9.2 mph 19.6 mph 59 % 0.00 in
02:18 27.6 °F 15.5 °F 29.48 in WNW 8.2 mph 16.1 mph 60 % 0.00 in
02:23 27.3 °F 14.8 °F 29.48 in NW 8.3 mph 19.6 mph 59 % 0.00 in
02:28 27.1 °F 14.3 °F 29.47 in WNW 6.7 mph 15.0 mph 58 % 0.00 in
02:33 26.9 °F 14.9 °F 29.48 in WNW 10.8 mph 12.0 mph 60 % 0.00 in
02:38 26.8 °F 14.8 °F 29.47 in WSW 5.6 mph 10.4 mph 60 % 0.00 in
02:43 26.6 °F 14.2 °F 29.47 in WNW 9.8 mph 18.4 mph 59 % 0.00 in
02:48 26.5 °F 14.9 °F 29.47 in SSW 8.7 mph 15.0 mph 61 % 0.00 in
02:53 26.3 °F 14.7 °F 29.47 in NNW 6.9 mph 9.2 mph 61 % 0.00 in
02:58 26.3 °F 15.4 °F 29.47 in WNW 9.5 mph 15.0 mph 63 % 0.00 in
03:03 26.2 °F 15.3 °F 29.47 in WNW 4.7 mph 11.5 mph 63 % 0.00 in
03:08 26.1 °F 13.3 °F 29.47 in WNW 7.3 mph 18.4 mph 58 % 0.00 in
03:13 25.9 °F 12.7 °F 29.47 in NW 7.9 mph 18.4 mph 57 % 0.00 in
03:24 25.5 °F 12.8 °F 29.46 in WNW 10.0 mph 17.3 mph 58 % 0.00 in
03:29 25.3 °F 12.2 °F 29.46 in SW 10.6 mph 19.6 mph 57 % 0.00 in
03:34 25.1 °F 12.0 °F 29.46 in WSW 14.6 mph 20.0 mph 57 % 0.00 in
03:39 24.8 °F 11.3 °F 29.47 in SW 6.8 mph 17.3 mph 56 % 0.00 in
03:44 24.5 °F 11.0 °F 29.47 in WSW 12.9 mph 25.0 mph 56 % 0.00 in
03:49 24.4 °F 11.3 °F 29.47 in WNW 10.7 mph 19.6 mph 57 % 0.00 in
03:54 24.2 °F 10.7 °F 29.46 in WNW 11.4 mph 19.6 mph 56 % 0.00 in
03:59 24.1 °F 11.0 °F 29.46 in SW 9.0 mph 16.1 mph 57 % 0.00 in
04:09 23.9 °F 10.9 °F 29.46 in WSW 12.1 mph 28.8 mph 57 % 0.00 in
04:14 23.8 °F 10.4 °F 29.46 in WNW 14.5 mph 26.5 mph 56 % 0.00 in
04:19 23.6 °F 10.6 °F 29.47 in WNW 11.5 mph 18.4 mph 57 % 0.00 in
04:29 23.4 °F 10.8 °F 29.46 in SW 10.6 mph 20.7 mph 58 % 0.00 in
04:34 23.3 °F 10.7 °F 29.47 in WSW 10.8 mph 26.5 mph 58 % 0.00 in
04:36 23.3 °F 10.3 °F 29.46 in West 12.7 mph 19.6 mph 57 % 0.00 in
04:41 23.1 °F 10.1 °F 29.47 in NW 13.7 mph 25.3 mph 57 % 0.00 in
04:46 23.0 °F 10.4 °F 29.46 in WNW 12.1 mph 18.4 mph 58 % 0.00 in
04:51 22.9 °F 10.7 °F 29.46 in NNW 10.2 mph 16.0 mph 59 % 0.00 in
04:56 22.9 °F 11.1 °F 29.47 in WNW 16.3 mph 23.0 mph 60 % 0.00 in
05:01 22.8 °F 10.2 °F 29.47 in WNW 10.7 mph 25.0 mph 58 % 0.00 in
05:06 22.9 °F 11.4 °F 29.47 in WSW 11.3 mph 19.6 mph 61 % 0.00 in
05:11 22.9 °F 11.4 °F 29.47 in WNW 8.0 mph 13.8 mph 61 % 0.00 in
05:16 23.0 °F 11.5 °F 29.47 in WSW 11.0 mph 19.6 mph 61 % 0.00 in
05:21 22.9 °F 11.1 °F 29.47 in West 13.1 mph 29.9 mph 60 % 0.00 in
05:26 22.9 °F 11.1 °F 29.47 in West 13.9 mph 26.5 mph 60 % 0.00 in
05:31 22.8 °F 10.2 °F 29.47 in West 9.7 mph 13.8 mph 58 % 0.00 in
05:36 22.7 °F 10.1 °F 29.47 in NW 10.5 mph 21.9 mph 58 % 0.00 in
05:41 22.7 °F 10.5 °F 29.47 in NW 12.9 mph 26.5 mph 59 % 0.00 in
05:43 22.7 °F 10.9 °F 29.47 in West 6.3 mph 13.0 mph 60 % 0.00 in
05:48 22.7 °F 11.3 °F 29.47 in West 12.6 mph 21.9 mph 61 % 0.00 in
05:53 22.7 °F 11.3 °F 29.47 in West 10.2 mph 19.6 mph 61 % 0.00 in
05:58 22.7 °F 11.3 °F 29.48 in NW 12.9 mph 21.9 mph 61 % 0.00 in
06:03 22.7 °F 10.9 °F 29.48 in WNW 10.5 mph 20.0 mph 60 % 0.00 in
06:08 22.7 °F 11.3 °F 29.48 in West 13.0 mph 19.6 mph 61 % 0.00 in
06:13 22.7 °F 11.3 °F 29.48 in West 12.8 mph 21.9 mph 61 % 0.00 in
06:18 22.7 °F 12.0 °F 29.48 in WNW 10.9 mph 19.6 mph 63 % 0.00 in
06:23 22.6 °F 11.2 °F 29.48 in West 6.0 mph 21.9 mph 61 % 0.00 in
06:28 22.6 °F 11.2 °F 29.48 in NW 9.5 mph 19.0 mph 61 % 0.00 in
06:33 22.6 °F 11.9 °F 29.48 in WNW 8.3 mph 11.5 mph 63 % 0.00 in
06:38 22.6 °F 11.5 °F 29.48 in NW 11.4 mph 20.7 mph 62 % 0.00 in
06:44 22.5 °F 11.4 °F 29.48 in WNW 8.7 mph 19.0 mph 62 % 0.00 in
06:49 22.5 °F 11.1 °F 29.49 in WNW 10.8 mph 19.6 mph 61 % 0.00 in
06:54 22.4 °F 11.3 °F 29.49 in WNW 12.3 mph 19.6 mph 62 % 0.00 in
06:59 22.4 °F 11.3 °F 29.49 in West 13.6 mph 19.6 mph 62 % 0.00 in
07:04 22.4 °F 11.3 °F 29.49 in WNW 9.8 mph 16.1 mph 62 % 0.00 in
07:05 22.4 °F 11.3 °F 29.49 in WSW 10.1 mph 16.0 mph 62 % 0.00 in
07:10 22.4 °F 11.3 °F 29.49 in WNW 7.3 mph 11.5 mph 62 % 0.00 in
07:15 22.4 °F 11.3 °F 29.50 in WSW 11.6 mph 19.6 mph 62 % 0.00 in
07:20 22.4 °F 11.0 °F 29.50 in WSW 11.0 mph 19.6 mph 61 % 0.00 in
07:25 22.3 °F 11.2 °F 29.50 in West 12.8 mph 18.4 mph 62 % 0.00 in
07:30 22.3 °F 10.9 °F 29.50 in West 13.0 mph 24.2 mph 61 % 0.00 in
07:35 22.3 °F 10.9 °F 29.50 in NW 6.7 mph 13.8 mph 61 % 0.00 in
07:40 22.4 °F 11.7 °F 29.50 in NNW 11.1 mph 20.7 mph 63 % 0.00 in
07:45 22.4 °F 11.0 °F 29.51 in WNW 9.7 mph 15.0 mph 61 % 0.00 in
07:46 22.5 °F 11.1 °F 29.50 in WSW 7.9 mph 15.0 mph 61 % 0.00 in
07:51 22.5 °F 11.1 °F 29.50 in West 9.0 mph 25.0 mph 61 % 0.00 in
07:56 22.5 °F 10.7 °F 29.51 in West 9.0 mph 29.0 mph 60 % 0.00 in
08:01 22.5 °F 11.1 °F 29.51 in NW 7.4 mph 19.6 mph 61 % 0.00 in
08:06 22.6 °F 11.5 °F 29.51 in WSW 3.6 mph 16.0 mph 62 % 0.00 in
08:11 22.7 °F 11.6 °F 29.51 in WNW 8.9 mph 19.6 mph 62 % 0.00 in
08:16 22.8 °F 11.7 °F 29.51 in WNW 12.0 mph 19.6 mph 62 % 0.00 in
08:21 22.8 °F 11.0 °F 29.52 in West 12.3 mph 19.6 mph 60 % 0.00 in
08:26 22.8 °F 11.3 °F 29.51 in NNW 9.8 mph 19.6 mph 61 % 0.00 in
08:31 22.9 °F 11.1 °F 29.52 in WNW 9.8 mph 19.6 mph 60 % 0.00 in
08:36 22.9 °F 11.8 °F 29.52 in WSW 8.2 mph 13.0 mph 62 % 0.00 in
08:41 23.0 °F 11.5 °F 29.52 in West 6.7 mph 17.3 mph 61 % 0.00 in
08:46 23.1 °F 11.6 °F 29.53 in NW 11.3 mph 24.2 mph 61 % 0.00 in
08:51 23.2 °F 11.4 °F 29.53 in SW 11.9 mph 17.3 mph 60 % 0.00 in
08:56 23.1 °F 10.9 °F 29.52 in NW 13.7 mph 21.9 mph 59 % 0.00 in
09:02 23.2 °F 12.1 °F 29.52 in NW 12.0 mph 25.3 mph 62 % 0.00 in
09:07 23.3 °F 11.4 °F 29.53 in West 10.2 mph 19.6 mph 60 % 0.00 in
09:12 23.4 °F 11.2 °F 29.53 in WNW 11.1 mph 26.5 mph 59 % 0.00 in
09:17 23.4 °F 11.2 °F 29.53 in WSW 9.1 mph 21.0 mph 59 % 0.00 in
09:22 23.4 °F 10.8 °F 29.53 in WNW 12.5 mph 25.3 mph 58 % 0.00 in
09:27 23.5 °F 10.5 °F 29.53 in WNW 10.5 mph 21.0 mph 57 % 0.00 in
09:32 23.5 °F 10.9 °F 29.53 in NNW 8.5 mph 20.7 mph 58 % 0.00 in
09:37 23.4 °F 10.4 °F 29.53 in NW 10.3 mph 21.9 mph 57 % 0.00 in
09:42 23.5 °F 10.9 °F 29.53 in WSW 11.1 mph 20.7 mph 58 % 0.00 in
09:47 23.6 °F 11.0 °F 29.54 in West 14.6 mph 23.0 mph 58 % 0.00 in
09:52 23.6 °F 10.6 °F 29.54 in NW 9.7 mph 10.4 mph 57 % 0.00 in
09:57 23.7 °F 11.1 °F 29.54 in WNW 14.1 mph 19.6 mph 58 % 0.00 in
10:02 23.8 °F 10.8 °F 29.53 in NW 10.1 mph 16.0 mph 57 % 0.00 in
10:07 23.8 °F 10.8 °F 29.53 in West 8.1 mph 19.6 mph 57 % 0.00 in
10:12 23.9 °F 11.3 °F 29.53 in North 10.8 mph 19.6 mph 58 % 0.00 in
10:17 24.1 °F 11.8 °F 29.53 in West 9.5 mph 19.6 mph 59 % 0.00 in
10:22 24.2 °F 11.5 °F 29.53 in West 14.7 mph 23.0 mph 58 % 0.00 in
10:27 24.3 °F 10.8 °F 29.53 in WSW 12.0 mph 20.7 mph 56 % 0.00 in
10:32 24.3 °F 11.2 °F 29.53 in WSW 9.0 mph 12.7 mph 57 % 0.00 in
10:37 24.4 °F 12.1 °F 29.53 in West 8.2 mph 15.0 mph 59 % 0.00 in
10:48 24.5 °F 12.6 °F 29.53 in WNW 8.7 mph 27.6 mph 60 % 0.00 in
10:53 24.5 °F 13.0 °F 29.53 in West 6.6 mph 13.8 mph 61 % 0.00 in
10:58 24.7 °F 13.9 °F 29.53 in West 9.7 mph 13.8 mph 63 % 0.00 in
11:08 24.7 °F 13.1 °F 29.53 in WSW 9.2 mph 18.0 mph 61 % 0.00 in
11:13 24.7 °F 13.5 °F 29.53 in SW 10.3 mph 16.1 mph 62 % 0.00 in
11:18 24.7 °F 13.1 °F 29.52 in SSW 6.6 mph 11.5 mph 61 % 0.00 in
11:23 24.7 °F 13.9 °F 29.52 in NW 10.2 mph 13.8 mph 63 % 0.00 in
11:28 24.8 °F 14.7 °F 29.52 in WNW 6.4 mph 13.0 mph 65 % 0.00 in
11:33 24.9 °F 14.1 °F 29.53 in WNW 10.1 mph 21.0 mph 63 % 0.00 in
11:38 24.8 °F 14.0 °F 29.53 in WNW 8.3 mph 19.6 mph 63 % 0.00 in
11:43 24.9 °F 14.4 °F 29.53 in WNW 13.4 mph 24.2 mph 64 % 0.00 in
11:48 24.8 °F 14.3 °F 29.52 in NNW 11.1 mph 21.9 mph 64 % 0.00 in
11:53 24.9 °F 14.4 °F 29.53 in West 8.6 mph 15.0 mph 64 % 0.00 in
11:58 25.1 °F 14.3 °F 29.53 in West 7.8 mph 18.4 mph 63 % 0.00 in
12:03 25.3 °F 14.8 °F 29.53 in SW 10.4 mph 17.3 mph 64 % 0.00 in
12:08 25.4 °F 14.5 °F 29.52 in West 8.4 mph 19.0 mph 63 % 0.00 in
12:13 25.6 °F 13.2 °F 29.53 in WNW 14.1 mph 20.0 mph 59 % 0.00 in
12:18 25.9 °F 14.3 °F 29.52 in NNW 10.2 mph 19.6 mph 61 % 0.00 in
12:23 26.1 °F 14.1 °F 29.52 in WSW 9.1 mph 23.0 mph 60 % 0.00 in
12:28 26.5 °F 14.1 °F 29.52 in West 12.5 mph 20.7 mph 59 % 0.00 in
12:34 26.6 °F 14.2 °F 29.53 in NW 11.6 mph 21.9 mph 59 % 0.00 in
12:39 26.7 °F 13.9 °F 29.53 in NW 12.8 mph 21.9 mph 58 % 0.00 in
12:44 26.7 °F 13.9 °F 29.53 in WNW 4.7 mph 15.0 mph 58 % 0.00 in
12:49 26.8 °F 13.6 °F 29.53 in West 11.5 mph 26.5 mph 57 % 0.00 in
12:54 26.9 °F 13.3 °F 29.53 in West 10.5 mph 18.4 mph 56 % 0.00 in
12:59 27.1 °F 13.9 °F 29.53 in NNE 9.0 mph 19.6 mph 57 % 0.00 in
13:04 27.2 °F 14.0 °F 29.53 in WNW 11.7 mph 24.2 mph 57 % 0.00 in
13:09 27.5 °F 14.2 °F 29.53 in WNW 13.5 mph 21.9 mph 57 % 0.00 in
13:14 27.7 °F 14.4 °F 29.53 in WSW 13.3 mph 25.3 mph 57 % 0.00 in
13:19 27.8 °F 14.1 °F 29.53 in WSW 14.3 mph 21.9 mph 56 % 0.00 in
13:24 28.0 °F 15.1 °F 29.53 in NNW 11.1 mph 19.6 mph 58 % 0.00 in
13:29 28.2 °F 14.9 °F 29.53 in WNW 10.7 mph 13.8 mph 57 % 0.00 in
13:35 28.4 °F 14.7 °F 29.53 in West 10.2 mph 25.3 mph 56 % 0.00 in
13:40 28.6 °F 15.3 °F 29.53 in WNW 9.1 mph 21.0 mph 57 % 0.00 in
13:45 28.7 °F 14.6 °F 29.53 in WNW 11.9 mph 26.0 mph 55 % 0.00 in
13:50 28.8 °F 14.6 °F 29.53 in NW 12.8 mph 26.5 mph 55 % 0.00 in
13:55 28.9 °F 14.7 °F 29.53 in WSW 12.1 mph 22.0 mph 55 % 0.00 in
14:00 29.0 °F 15.2 °F 29.54 in West 9.9 mph 18.4 mph 56 % 0.00 in
14:05 29.1 °F 14.9 °F 29.55 in WNW 9.8 mph 24.0 mph 55 % 0.00 in
14:10 29.1 °F 15.3 °F 29.55 in NW 10.2 mph 19.6 mph 56 % 0.00 in
14:15 29.1 °F 14.1 °F 29.55 in WNW 10.3 mph 20.7 mph 53 % 0.00 in
14:20 29.1 °F 14.1 °F 29.55 in SW 10.3 mph 19.6 mph 53 % 0.00 in
14:25 29.1 °F 13.6 °F 29.55 in WNW 9.2 mph 19.6 mph 52 % 0.00 in
14:30 29.1 °F 13.6 °F 29.55 in West 8.0 mph 12.7 mph 52 % 0.00 in
14:35 29.1 °F 14.1 °F 29.56 in NNW 7.5 mph 15.0 mph 53 % 0.00 in
14:45 29.2 °F 13.7 °F 29.57 in WSW 11.3 mph 16.1 mph 52 % 0.00 in
14:50 29.3 °F 12.9 °F 29.56 in NW 10.9 mph 19.6 mph 50 % 0.00 in
14:55 29.4 °F 12.6 °F 29.57 in West 14.2 mph 21.9 mph 49 % 0.00 in
15:00 29.4 °F 12.1 °F 29.57 in WNW 10.0 mph 21.0 mph 48 % 0.00 in
15:05 29.6 °F 12.8 °F 29.57 in WNW 8.3 mph 11.5 mph 49 % 0.00 in
15:10 29.7 °F 13.8 °F 29.58 in NW 9.1 mph 15.0 mph 51 % 0.00 in
15:15 29.8 °F 13.9 °F 29.58 in West 6.6 mph 11.5 mph 51 % 0.00 in
15:20 29.9 °F 13.0 °F 29.58 in WNW 11.8 mph 23.0 mph 49 % 0.00 in
15:25 29.9 °F 11.1 °F 29.58 in WNW 7.2 mph 12.7 mph 45 % 0.00 in
15:30 29.9 °F 11.1 °F 29.58 in WSW 11.9 mph 19.6 mph 45 % 0.00 in
15:35 29.9 °F 10.6 °F 29.58 in WNW 9.8 mph 21.9 mph 44 % 0.00 in
15:40 29.9 °F 11.6 °F 29.58 in West 8.6 mph 11.5 mph 46 % 0.00 in
15:45 29.9 °F 11.1 °F 29.59 in West 12.4 mph 17.3 mph 45 % 0.00 in
15:50 29.8 °F 11.0 °F 29.58 in WNW 7.2 mph 11.5 mph 45 % 0.00 in
15:55 29.8 °F 11.5 °F 29.58 in SW 9.0 mph 15.0 mph 46 % 0.00 in
16:00 29.8 °F 10.5 °F 29.58 in NW 9.9 mph 25.3 mph 44 % 0.00 in
16:06 29.8 °F 11.5 °F 29.58 in West 8.0 mph 25.0 mph 46 % 0.00 in
16:11 29.8 °F 12.0 °F 29.59 in WNW 8.0 mph 14.0 mph 47 % 0.00 in
16:16 29.8 °F 11.5 °F 29.59 in West 8.0 mph 21.0 mph 46 % 0.00 in
16:21 29.8 °F 11.0 °F 29.59 in West 6.0 mph 15.0 mph 45 % 0.00 in
16:26 29.8 °F 11.0 °F 29.60 in West 9.0 mph 22.0 mph 45 % 0.00 in
16:31 29.8 °F 11.0 °F 29.60 in West 9.0 mph 18.0 mph 45 % 0.00 in
16:36 29.7 °F 10.4 °F 29.60 in WSW 6.0 mph 15.0 mph 44 % 0.00 in
16:41 29.7 °F 10.4 °F 29.60 in WSW 10.0 mph 22.0 mph 44 % 0.00 in
16:46 29.6 °F 10.3 °F 29.61 in West 6.0 mph 15.0 mph 44 % 0.00 in
16:51 29.6 °F 10.3 °F 29.61 in West 6.0 mph 17.0 mph 44 % 0.00 in
16:56 29.6 °F 10.3 °F 29.61 in West 8.0 mph 20.0 mph 44 % 0.00 in
17:01 29.6 °F 10.3 °F 29.61 in West 9.9 mph 15.0 mph 44 % 0.00 in
17:06 29.5 °F 10.7 °F 29.62 in West 8.0 mph 22.0 mph 45 % 0.00 in
17:07 29.6 °F 10.3 °F 29.62 in WNW 9.2 mph 15.0 mph 44 % 0.00 in
17:12 29.5 °F 10.2 °F 29.62 in West 6.6 mph 11.5 mph 44 % 0.00 in
17:17 29.5 °F 10.7 °F 29.62 in WSW 7.9 mph 12.7 mph 45 % 0.00 in
17:22 29.5 °F 10.2 °F 29.62 in West 10.5 mph 19.6 mph 44 % 0.00 in
17:27 29.4 °F 11.1 °F 29.62 in West 7.3 mph 13.8 mph 46 % 0.00 in
17:32 29.4 °F 11.1 °F 29.62 in West 7.2 mph 19.6 mph 46 % 0.00 in
17:37 29.4 °F 11.6 °F 29.63 in WNW 5.3 mph 11.5 mph 47 % 0.00 in
17:42 29.3 °F 11.1 °F 29.63 in NW 10.1 mph 17.3 mph 46 % 0.00 in
17:47 29.3 °F 10.6 °F 29.63 in West 6.8 mph 12.0 mph 45 % 0.00 in
17:52 29.3 °F 11.1 °F 29.64 in WSW 10.8 mph 15.0 mph 46 % 0.00 in
17:57 29.3 °F 11.5 °F 29.64 in West 6.1 mph 14.0 mph 47 % 0.00 in
18:02 29.3 °F 12.0 °F 29.63 in WSW 8.0 mph 17.3 mph 48 % 0.00 in
18:07 29.3 °F 12.0 °F 29.63 in WSW 4.7 mph 16.1 mph 48 % 0.00 in
18:12 29.3 °F 12.0 °F 29.64 in SSW 8.4 mph 19.6 mph 48 % 0.00 in
18:17 29.3 °F 12.0 °F 29.64 in West 6.5 mph 9.2 mph 48 % 0.00 in
18:22 29.3 °F 12.9 °F 29.64 in NW 7.7 mph 14.0 mph 50 % 0.00 in
18:27 29.3 °F 12.5 °F 29.65 in WNW 7.6 mph 11.5 mph 49 % 0.00 in
18:32 29.3 °F 12.5 °F 29.65 in West 6.0 mph 11.5 mph 49 % 0.00 in
18:37 29.2 °F 12.4 °F 29.65 in WSW 7.8 mph 11.5 mph 49 % 0.00 in
18:41 29.3 °F 12.9 °F 29.65 in West 5.0 mph 15.0 mph 50 % 0.00 in
18:46 29.2 °F 12.8 °F 29.65 in West 8.0 mph 20.0 mph 50 % 0.00 in
18:51 29.2 °F 12.8 °F 29.65 in West 7.0 mph 13.0 mph 50 % 0.00 in
18:56 29.2 °F 12.8 °F 29.65 in West 7.0 mph 16.0 mph 50 % 0.00 in
19:01 29.2 °F 13.3 °F 29.65 in West 5.4 mph 11.5 mph 51 % 0.00 in
19:06 29.1 °F 13.2 °F 29.65 in WNW 3.0 mph 15.0 mph 51 % 0.00 in
19:11 29.1 °F 13.2 °F 29.65 in West 6.0 mph 12.0 mph 51 % 0.00 in
19:16 29.0 °F 13.1 °F 29.66 in WSW 6.0 mph 18.0 mph 51 % 0.00 in
19:21 29.0 °F 13.1 °F 29.66 in WNW 7.0 mph 14.0 mph 51 % 0.00 in
19:26 29.0 °F 13.6 °F 29.66 in SW 4.4 mph 11.5 mph 52 % 0.00 in
19:31 29.0 °F 13.1 °F 29.66 in WSW 7.0 mph 16.0 mph 51 % 0.00 in
19:36 29.0 °F 13.6 °F 29.66 in West 6.0 mph 12.0 mph 52 % 0.00 in
19:41 29.0 °F 13.6 °F 29.66 in West 1.0 mph 9.0 mph 52 % 0.00 in
19:46 28.9 °F 13.0 °F 29.66 in West 8.0 mph 16.0 mph 51 % 0.00 in
19:51 28.9 °F 13.5 °F 29.66 in WNW 6.0 mph 12.0 mph 52 % 0.00 in
19:56 28.9 °F 13.9 °F 29.66 in West 5.0 mph 12.0 mph 53 % 0.00 in
20:01 28.8 °F 14.2 °F 29.66 in WSW 3.7 mph 8.1 mph 54 % 0.00 in
20:06 28.8 °F 14.2 °F 29.66 in West 5.6 mph 12.7 mph 54 % 0.00 in
20:11 28.7 °F 14.6 °F 29.66 in WSW 8.7 mph 16.1 mph 55 % 0.00 in
20:16 28.7 °F 13.7 °F 29.66 in West 7.4 mph 13.8 mph 53 % 0.00 in
20:21 28.7 °F 13.7 °F 29.65 in WSW 5.8 mph 10.4 mph 53 % 0.00 in
20:26 28.7 °F 14.1 °F 29.65 in WNW 4.9 mph 8.1 mph 54 % 0.00 in
20:31 28.7 °F 13.7 °F 29.65 in West 8.2 mph 15.0 mph 53 % 0.00 in
20:36 28.7 °F 14.1 °F 29.65 in West 5.6 mph 11.5 mph 54 % 0.00 in
20:41 28.7 °F 14.1 °F 29.66 in WNW 6.3 mph 10.0 mph 54 % 0.00 in
20:46 28.7 °F 14.1 °F 29.65 in West 5.0 mph 6.9 mph 54 % 0.00 in
20:51 28.7 °F 14.1 °F 29.65 in West 4.5 mph 8.1 mph 54 % 0.00 in
20:56 28.7 °F 14.6 °F 29.65 in WNW 5.2 mph 9.2 mph 55 % 0.00 in
21:01 28.7 °F 14.1 °F 29.65 in WSW 3.2 mph 6.9 mph 54 % 0.00 in
21:03 28.7 °F 14.1 °F 29.65 in WSW 4.3 mph 8.0 mph 54 % 0.00 in
21:08 28.6 °F 14.0 °F 29.65 in West 3.7 mph 11.5 mph 54 % 0.00 in
21:13 28.5 °F 13.9 °F 29.64 in NW 2.7 mph 9.2 mph 54 % 0.00 in
21:18 28.5 °F 13.9 °F 29.65 in WNW 3.0 mph 10.0 mph 54 % 0.00 in
21:23 28.5 °F 13.9 °F 29.65 in West 5.0 mph 8.1 mph 54 % 0.00 in
21:28 28.4 °F 13.9 °F 29.66 in SW 7.0 mph 11.0 mph 54 % 0.00 in
21:33 28.4 °F 14.3 °F 29.65 in WSW 6.7 mph 11.0 mph 55 % 0.00 in
21:38 28.3 °F 14.2 °F 29.65 in West 6.1 mph 15.0 mph 55 % 0.00 in
21:43 28.3 °F 14.2 °F 29.66 in West 8.3 mph 16.1 mph 55 % 0.00 in
21:48 28.3 °F 14.2 °F 29.65 in SW 5.7 mph 15.0 mph 55 % 0.00 in
21:53 28.3 °F 14.2 °F 29.65 in WNW 5.5 mph 15.0 mph 55 % 0.00 in
21:58 28.2 °F 14.1 °F 29.66 in West 2.7 mph 11.5 mph 55 % 0.00 in
22:03 28.2 °F 14.5 °F 29.66 in West 10.0 mph 13.8 mph 56 % 0.00 in
22:08 28.2 °F 14.1 °F 29.67 in WNW 8.3 mph 12.7 mph 55 % 0.00 in
22:13 28.2 °F 14.1 °F 29.67 in SW 5.8 mph 12.7 mph 55 % 0.00 in
22:20 28.3 °F 14.2 °F 29.67 in West 9.0 mph 17.3 mph 55 % 0.00 in
22:25 28.3 °F 14.2 °F 29.44 in SW 8.2 mph 17.3 mph 55 % 0.00 in
22:30 28.3 °F 14.2 °F 29.67 in West 5.5 mph 15.0 mph 55 % 0.00 in
22:35 28.3 °F 14.2 °F 29.66 in West 4.7 mph 10.4 mph 55 % 0.00 in
22:40 28.3 °F 13.8 °F 29.66 in WNW 4.8 mph 10.4 mph 54 % 0.00 in
22:41 28.3 °F 13.8 °F 29.66 in SW 3.3 mph 8.1 mph 54 % 0.00 in
22:46 28.3 °F 14.2 °F 29.65 in West 4.1 mph 6.9 mph 55 % 0.00 in
22:51 28.4 °F 14.3 °F 29.65 in SSW 6.0 mph 12.0 mph 55 % 0.00 in
22:55 28.3 °F 13.8 °F 29.43 in WSW 8.0 mph 12.7 mph 54 % 0.00 in
22:56 28.4 °F 13.9 °F 29.65 in West 5.8 mph 9.2 mph 54 % 0.00 in
23:01 28.4 °F 14.3 °F 29.66 in West 4.4 mph 10.0 mph 55 % 0.00 in
23:06 28.4 °F 14.3 °F 29.67 in WSW 3.0 mph 8.1 mph 55 % 0.00 in
23:11 28.4 °F 14.7 °F 29.67 in NW 4.6 mph 9.2 mph 56 % 0.00 in
23:16 28.4 °F 14.3 °F 29.66 in WSW 7.1 mph 11.0 mph 55 % 0.00 in
23:17 28.4 °F 14.3 °F 29.44 in SSW 7.0 mph 13.8 mph 55 % 0.00 in
23:22 28.5 °F 13.9 °F 29.67 in WNW 5.7 mph 13.8 mph 54 % 0.00 in
23:27 28.4 °F 13.9 °F 29.67 in West 5.6 mph 10.4 mph 54 % 0.00 in
23:30 28.5 °F 13.9 °F 29.44 in WSW 5.2 mph 8.1 mph 54 % 0.00 in
23:32 28.4 °F 13.9 °F 29.66 in West 2.1 mph 3.5 mph 54 % 0.00 in
23:37 28.5 °F 13.9 °F 29.66 in WNW 4.2 mph 5.0 mph 54 % 0.00 in
23:42 28.5 °F 13.9 °F 29.67 in WSW 3.6 mph 5.0 mph 54 % 0.00 in
23:47 28.5 °F 14.4 °F 29.67 in WSW 4.6 mph 6.9 mph 55 % 0.00 in
23:51 28.5 °F 14.4 °F 29.67 in SW 5.0 mph 12.0 mph 55 % 0.00 in
23:56 28.5 °F 14.8 °F 29.67 in West 3.9 mph 12.7 mph 56 % 0.00 in
23:59 28.5 °F 14.8 °F 29.45 in SW 6.4 mph 8.1 mph 56 % 0.00 in
Crab Meadow Weather
Compliments of Weather Underground - 3 mb

Script developed by  Jim McMurry - jmcmurry@mwt.net Adapted for the template by  Wim van der Kuil - Leuven-Template.eu

Weather Terms: Blizzard Warning - Sustained winds or frequent gusts of 35 mph or greater, considerable falling and/or blowing snow reducing visibility frequently to 1/4 mile or less for a period of three hours or more. There are no temperature criteria in the definition of a blizzard but freezing temperatures and 35 mph winds will create sub-zero wind chills.